Home   Weather   Fjerdingby   Past weeks

Flag for Norway Past Weather in Fjerdingby, Norway — Yesterday and Last 2 Weeks

Now
49 °F

Scattered clouds.


Feels Like: 49 °F
Forecast: 29 / 51 °F
Wind: 1 mph from North

Location: Oslo-Blindern

Current Time: Apr 29, 2017 at 9:42:00 pm

Latest Report: Apr 29, 2017 at 8:00 pm


Visibility: 41 mi

Pressure: 30.16 "Hg

Humidity: 31%

Dew Point: 20 °F

Location of FjerdingbyLocation

Past Weather in Fjerdingby — Graph

°F

Fjerdingby Temperature Yesterday

Maximum temperature yesterday: 45 °F (at 2:00 pm)
Minimum temperature yesterday: 33 °F (at 1:00 am)
Average temperature yesterday: 39 °F

High & Low Weather Summary for the Past Weeks

 TemperatureHumidityPressure
High53 °F (Apr 21, 12:00 pm)98% (Apr 24, 6:00 am)30.55 "Hg (Apr 24, 6:00 am)
Low24 °F (Apr 15, 6:00 am)20% (Apr 22, 3:00 pm)29.23 "Hg (Apr 24, 6:00 pm)
Average39 °F60%29.93 "Hg
* Reported Apr 14 8:00 pm — Apr 29 8:00 pm, Fjerdingby, Weather by CustomWeather, © 2017

Note: Actual official high and low records may vary slightly from our data, if they occured in-between our weather recording intervals... More about our weather records

Advertising

Fjerdingby Weather History for the Previous 24 Hours

Scroll right to see more
 ConditionsComfort  
Time TempWeatherWind HumidityBarometerVisibility
8:00 pm
Sat, Apr 29
49 °FScattered clouds.1 mph31%30.16 "Hg40 mi
7:00 pm50 °FCool.2 mph31%30.16 "Hg31 mi
6:00 pm49 °FCool.3 mph33%30.17 "Hg31 mi
5:00 pm49 °FPartly sunny.3 mph33%30.18 "Hg47 mi
4:00 pm49 °FCool.1 mph35%30.18 "Hg31 mi
3:00 pm49 °FCool.5 mph36%30.19 "Hg22 mi
2:00 pm48 °FPassing clouds.5 mph41%30.19 "Hg40 mi
1:00 pm47 °FCool.5 mph41%30.20 "Hg25 mi
12:00 pm46 °FCool.6 mph44%30.21 "Hg25 mi
11:00 am44 °FQuite cool.6 mph51%30.22 "Hg25 mi
10:00 am41 °FQuite cool.6 mph55%30.23 "Hg25 mi
9:00 am39 °FChilly.5 mph58%30.23 "Hg28 mi
8:00 am37 °FChilly.7 mph64%30.23 "Hg28 mi
7:00 am35 °FChilly.5 mph67%30.23 "Hg31 mi
6:00 am34 °FChilly.5 mph72%30.23 "Hg31 mi
5:00 am35 °FChilly.6 mph71%30.22 "Hg31 mi
4:00 am36 °FChilly.6 mph69%30.19 "Hg31 mi
3:00 am38 °FChilly.7 mph68%30.18 "Hg31 mi
2:00 am39 °FChilly.7 mph67%30.16 "Hg31 mi
1:00 am40 °FQuite cool.7 mph64%30.14 "Hg31 mi
12:00 am41 °FDrizzle. Overcast.8 mph64%30.13 "Hg31 mi
11:00 pm
Fri, Apr 28
41 °FQuite cool.8 mph68%30.11 "Hg31 mi
10:00 pm42 °FQuite cool.7 mph69%30.09 "Hg31 mi
9:00 pm42 °FQuite cool.7 mph71%30.07 "Hg31 mi
Weather by CustomWeather, © 2017

See weather overviewHow to use our weather pages